Voltar ao catálogo

NOAA 16 DEB

AtivoPO
NORAD 41365·DEBRIS·🇺🇸 United States

Lançado Sep 21, 2000 de Vandenberg Space Force Base

Loading…

Próximas Passagens (próximas 24 horas)

TLE

AtualizadoSource: Space-Track

Época: Sep 13, 2026, 18:34 UTC

1 41365U 00055JJ  26256.77387372  .00006188  00000-0  13108-2 0  9992
2 41365  98.9270  92.5534 0023911 198.2087 161.8257 14.59440082552510

Acompanhe NOAA 16 DEB em tempo real com AllMySat

Download on the App Store